STARLINK-36204, 68549

Orbit data source: Space-Track

STARLINK-36204, 68549 is a payload satellite owned by SpaceX/Seattle (US) in LEO that was launched on Thu, 02 Apr 2026 UTC via an FALCON 9 launch vehicle from the Air Force Eastern Test Range (AFETR). Payload-class satellites include a variety of spacecraft equipped with specific instruments for various scientific and technological missions. These include communications satellites like Starlink; space stations such as the ISS; scientific satellites like the Hubble; Earth observation satellites from companies like Planet Labs, Umbra, and HawkEye 360; GPS; miniature CubeSats for education and research; and military/defense satellites.

Loading next visibility...
Identifier
68549, 2026-070H
Orbit
LEO
Country
Flag of USUS
Related business
Manufacturer
SpaceX/Seattle
Mission
Operational spacecraft
Bus & Motor
STARLINK V2MO, Unknown motor
Mass
575 kg wet, ~530 kg dry
Launch date (UTC)
2026-04-02 (2 months ago)
Launch vehicle
FALCON 9
Launch site
Air Force Eastern Test Range (AFETR)
Object type
Payload
Rocket body
Debris
Shape & HBR
Unknown shape, 14.5 m
Radar Cross Section
RCS unknown

Expand to show TLE details & history
Last TLE update: 11 hours ago

TLE from 11 hours ago
0 STARLINK-36204
1 68549U 26070H   26145.58864806  .00019622  00000-0  59015-3 0  9993
2 68549  53.1612   5.0260 0001152  88.0632 272.0502 15.34410488  8331
Epoch: 2026-05-25T14:07Z
TLE epoch observation values (Epoch: 2026-05-25T14:07:39.192Z)
Latitude
-0.00006°
Longitude
-90.06162°
Altitude
463.545 km
Speed
7.636 km/s
True Right ascension
00h 20m 06s
True Declination
0° 00' 00"
Sunlit
Object was in daylight at epoch
Visualization orbit readout
Latitude
Unknown
Longitude
Unknown
Altitude
Unknown
Speed
Unknown
Apparent Right ascension
Unknown
Apparent Declination
Unknown
Sunlit
N/A
Visualization observer readout
Local Sidereal Time
10:22:07
Azimuth
Unknown
Elevation
Unknown
Doppler factor
Unknown
Orbital elements
Apogee altitude
463.717 km
Perigee altitude
462.141 km
Semi-major axis
6,841.066 km
Eccentricity
0.00012
Inclination
53.1612°
RAAN
5.026°
Arg. of periapsis
88.0632°
True anomaly
272.03701°
Mean anomaly
272.0502°
Eccentric anomaly
272.0436°
Mean motion
3.83581 °/min
Orbital period
93.85 mins
BSTAR
0.00059015
Loading maneuver chart data...
Computing Atmospheric mass density...
Loading historical data...
Loading historical data...
Loading historical data...
Loading historical data...
Loading historical data...
Loading historical data...
Loading historical data...

Documentation

Showing up to 5 results
|